GSAT0221 (GALILEO 25) (43564 NORAD) Tracking and Keplerian Element Data

This shows tracking and keplerian element data for the satellite.

Feedback or suggestion? Click here.




ElementValue
Catalog43564
NameGSAT0221 (GALILEO 25)
Epoch Orbit601
Epoch Day193.36674282
Epoch Year2019
RAAN50.4062
Inclination56.5796
Eccentricity0.0002655
Argument of Perigee283.8093
Mean Anonmoly76.2252
Mean Motion1.70475722
Decay Rate-7.8E-07
L11 43564U 18060A 19193.36674282 -.00000078 00000-0 00000+0 0 9993
L22 43564 56.5796 50.4062 0002655 283.8093 76.2252 1.70475722 6016

Live tracking and technical data element details for GSAT0221 (GALILEO 25) (NORAD 43564). GSAT0221 (GALILEO 25) can be tracked NOW for your location showing map with azimuth and elevation plus other details from your city location.

Track the satellite on the map from your city or location and see movement details for azimuth, elevation, latitude, longitude, range, height, and movement on the map or in text.







IsCatalogInMostPopularTable: catalog: 43564, numindb: 189
Update: records affected: 1



GetName: 43564 GSAT0221 (GALILEO 25)

Hit Count: updated at: Wed, 17 Jul 2019 09:21:19 GMT